Home > Weather > Copenhagen > Past weeks

Flag for Denmark Weather for the Past 2 Weeks in Copenhagen, Denmark

Now
52 °F

Sunny.


Feels Like: 49 °F
Forecast: 41 / 61 °F
Wind: 9 mph from North

Location: Koebenhavn-Kastrup Airport

Current Time: May 5, 2016 at 9:27:33 AM

Latest Report: May 5, 2016 at 8:50 AM


Visibility: 10 mi

Pressure: 30.42 "Hg

Humidity: 62%

Dew Point: 39 °F

Location of CopenhagenLocation

Historic Weather in Copenhagen — Graph

°F

Copenhagen Temperature Yesterday

Maximum temperature yesterday: 55 °F (at 12:20 PM)
Minimum temperature yesterday: 43 °F (at 4:50 AM)
Average temperature yesterday: 50 °F

High & Low Weather Summary for the Past Weeks

 TemperatureHumidityPressure
High57 °F (May 3, 11:20 AM)100% (Apr 21, 5:50 AM)30.42 "Hg (Apr 21, 5:50 AM)
Low34 °F (Apr 24, 12:20 AM)26% (May 2, 12:20 PM)29.33 "Hg (Apr 27, 4:20 AM)
Average45 °F72%29.96 "Hg
* Reported Apr 20 8:20 AM — May 5 8:20 AM, Copenhagen, Weather by CustomWeather, © 2016

Note: Actual official high and low records may vary slightly from our data, if they occured in-between our weather recording intervals... More about our weather records

Advertising

Copenhagen Weather History for the Previous 24 Hours

Scroll right to see more
 ConditionsComfort  
Time TempWeatherWind HumidityBarometerVisibility
8:20 AM
Thu, May 5
52 °FSunny.9 mph58%30.42 "Hg10 mi
7:50 AM50 °FSunny.8 mph62%30.42 "Hg10 mi
7:20 AM50 °FPassing clouds.8 mph62%30.42 "HgN/A
6:50 AM46 °FSunny.9 mph71%30.42 "Hg10 mi
6:20 AM45 °FSunny.7 mph71%30.42 "Hg10 mi
5:50 AM43 °FClear.7 mph76%30.42 "Hg10 mi
5:20 AM41 °FClear.6 mph81%30.42 "Hg10 mi
4:50 AM43 °FClear.6 mph76%30.39 "Hg10 mi
4:20 AM41 °FClear.5 mph81%30.39 "Hg10 mi
3:50 AM41 °FClear.5 mph81%30.39 "Hg10 mi
3:20 AM39 °FClear.5 mph87%30.39 "Hg10 mi
2:50 AM41 °FClear.5 mph87%30.39 "Hg10 mi
2:20 AM41 °FClear.3 mph87%30.39 "Hg10 mi
1:50 AM39 °FClear.5 mph87%30.39 "Hg10 mi
1:20 AM43 °FClear.5 mph81%30.39 "Hg10 mi
12:50 AM43 °FClear.5 mph81%30.39 "Hg10 mi
12:20 AM45 °FPassing clouds.5 mph76%30.39 "HgN/A
11:50 PM
Wed, May 4
45 °FClear.5 mph76%30.39 "Hg10 mi
11:20 PM46 °FPassing clouds.6 mph71%30.39 "HgN/A
10:50 PM48 °FClear.6 mph66%30.39 "Hg10 mi
10:20 PM50 °FPassing clouds.7 mph62%30.39 "HgN/A
9:50 PM50 °FPassing clouds.9 mph62%30.39 "HgN/A
9:20 PM50 °FSunny.10 mph58%30.36 "Hg10 mi
8:50 PM52 °FPassing clouds.9 mph54%30.36 "HgN/A
8:20 PM54 °FSunny.9 mph47%30.36 "Hg10 mi
7:50 PM54 °FSunny.13 mph54%30.36 "Hg10 mi
7:20 PM54 °FSunny.13 mph54%30.36 "Hg10 mi
6:50 PM54 °FSunny.15 mph58%30.36 "Hg10 mi
6:20 PM55 °FPassing clouds.14 mph55%30.36 "HgN/A
5:50 PM54 °FSunny.12 mph58%30.36 "Hg10 mi
5:20 PM54 °FPassing clouds.13 mph54%30.36 "HgN/A
4:50 PM54 °FPassing clouds.13 mph58%30.36 "HgN/A
4:20 PM54 °FPassing clouds.13 mph58%30.36 "HgN/A
3:50 PM55 °FPassing clouds.13 mph59%30.36 "HgN/A
3:20 PM55 °FPassing clouds.15 mph59%30.36 "HgN/A
2:50 PM55 °FPassing clouds.15 mph55%30.36 "HgN/A
2:20 PM55 °FPassing clouds.13 mph59%30.36 "HgN/A
1:50 PM55 °FPassing clouds.13 mph55%30.33 "HgN/A
1:20 PM54 °FPassing clouds.13 mph63%30.33 "HgN/A
12:50 PM54 °FPassing clouds.12 mph63%30.33 "HgN/A
12:20 PM55 °FPassing clouds.14 mph63%30.33 "HgN/A
11:50 AM54 °FPassing clouds.10 mph63%30.33 "HgN/A
11:20 AM54 °FPassing clouds.12 mph63%30.33 "HgN/A
10:50 AM52 °FPassing clouds.9 mph62%30.33 "HgN/A
10:20 AM50 °FPassing clouds.12 mph71%30.33 "HgN/A
9:50 AM50 °FPassing clouds.13 mph71%30.33 "HgN/A
9:20 AM50 °FPassing clouds.10 mph71%30.33 "HgN/A
Weather by CustomWeather, © 2016

See weather overviewHow to use our weather pages